#timestamp,LO_Frequency,Hit,StdDev 
1596330935.7,286047011.6,P
1596330955.5,286047011.7,P
1596330975.3,286047011.3,P
1596330995.2,286047012.0,Y
1596331015.0,286047000.8,P
1596331015.9,286047000.8,N
1596331035.8,286047001.1,N
1596331055.6,286047000.9,N
1596331075.4,286047000.5,N
1596331095.3,286047000.1,N
1596331115.1,286046998.6,N
1596331135.9,286047000.7,N
1596331155.7,286047000.7,N
1596331175.5,286046998.6,N
1596331195.4,286046998.2,N
1596331215.2,286046998.6,N
1596331235.0,286047001.1,N
1596331235.9,286047001.1,N
1596331255.8,286046998.5,N
1596331275.6,286047000.8,N
1596331295.5,286047000.3,N
1596331315.3,286046998.1,N
1596331335.1,286046998.1,N
1596331355.9,286047001.1,N
1596331375.7,286046998.5,N
1596331395.6,286046999.8,N
1596331415.4,286047000.6,N
1596331435.2,286047002.5,N
1596331455.1,286047000.2,N
1596331456.0,286047000.2,N
1596331475.8,286047000.2,N
1596331495.7,286047002.6,N
1596331515.5,286047000.1,N
1596331535.3,286046999.7,N
1596331555.2,286046999.9,N
1596331575.0,286047002.3,N
1596331575.9,286047002.3,N
1596331595.7,286047002.6,N
1596331615.6,286047002.0,N
1596331635.4,286047002.1,N
1596331655.3,286047002.0,N
1596331675.1,286047004.0,N
1596331676.0,286047004.0,N
1596331695.8,286047003.9,N
1596331715.7,286047001.5,N
1596331735.5,286047004.4,N
1596331755.3,286047001.3,N
1596331775.2,286047001.4,N
1596331795.0,286047004.4,N
1596331795.9,286047004.4,N
1596331815.8,286047003.9,N
1596331835.6,286047003.5,N
1596331855.4,286047003.7,N
1596331875.3,286047004.1,N
1596331895.1,286047005.8,Y
1596331915.9,286047001.9,P
1596331935.7,286047002.2,P
1596331955.5,286047001.9,P
1596331975.4,286047002.6,Y
1596331995.2,286047000.7,P
1596332015.0,286047000.3,N
1596332016.0,286047000.3,N
1596332035.8,286047000.8,N
1596332055.6,286047001.1,N
1596332075.5,286046998.5,N
1596332095.3,286047000.3,N
1596332115.1,286047000.4,N
1596332165.9,286046999.9,E
1596332175.8,286047000.3,N
1596332195.7,286047000.5,P
1596332215.5,286046999.9,N
1596332235.3,286047000.3,N
1596332255.2,286046999.9,N
1596332275.0,286047000.4,N
1596332306.0,286047000.4,E
1596332315.9,286046999.8,N
1596332335.7,286047000.0,P
1596332355.6,286047002.2,P
1596332375.4,286047000.3,N
1596332395.2,286047000.1,N
1596332415.1,286046999.8,N
1596332416.0,286046999.8,N
1596332435.8,286047001.7,N
1596332455.6,286047001.4,N
1596332475.5,286047001.4,N
1596332495.3,286047002.0,N
1596332515.2,286047003.9,Y
1596332535.0,286047001.4,P
1596332535.9,286047001.4,P
1596332555.7,286047001.5,P
1596332575.6,286047004.4,Y
1596332595.4,286047000.6,P
1596332615.3,286047000.3,N
1596332635.1,286047000.5,N
1596332655.8,286047002.2,Y
1596332675.7,286046999.7,P
1596332695.5,286046999.8,N
1596332715.4,286047000.8,N
1596332735.2,286047002.8,Y
1596332755.0,286047002.7,P
1596332755.9,286047002.7,N
1596332775.8,286047002.7,N
1596332795.6,286047002.4,N
1596332815.4,286047002.4,N
1596332835.3,286047002.1,N
1596332855.1,286047004.3,Y
1596332875.9,286047000.4,P
1596332895.7,286046999.7,N
1596332915.5,286047001.2,N
1596332935.4,286047000.9,N
1596332955.2,286047000.1,N
1596332975.0,286046999.8,N
1596332976.0,286046999.8,N
1596332995.8,286047002.3,N
1596333015.6,286047000.3,N
1596333035.5,286046999.8,N
1596333055.3,286047002.3,N
1596333075.1,286047002.3,N
1596333095.9,286047002.2,N
1596333115.7,286047001.3,N
1596333135.6,286047001.5,N
1596333155.4,286047003.5,Y
1596333175.2,286047002.5,P
1596333195.1,286047002.4,P
1596333196.0,286047002.4,P
1596333215.8,286047001.8,N
1596333235.7,286047002.2,Y
1596333255.5,286046998.1,P
1596333275.3,286047000.5,N
1596333295.2,286046999.9,N
1596333315.9,286046999.9,N
1596333335.7,286046999.8,N
1596333355.6,286047000.2,N
1596333375.4,286047000.5,N
1596333395.3,286047000.5,N
1596333415.1,286047000.4,N
1596333416.0,286047000.4,N
1596333435.8,286047001.4,N
1596333455.7,286047002.8,Y
1596333475.5,286047002.6,P
1596333495.3,286047000.9,N
1596333515.2,286047000.6,N
1596333535.0,286047002.6,N
1596333535.9,286047002.6,N
1596333555.8,286047002.8,N
1596333575.6,286047002.7,N
1596333595.4,286047002.3,N
